[[{"header":{"parameterUnit":"m.s-1","parameterCategory":1,"la1":30.2991,"la2":30.254,"lo1":-89.0895,"lo2":-89.0444,"dy":0.0017,"dx":0.0017,"nx":28,"ny":28,"refTime":"2023-10-02T03:00:00:Z","depth":0,"parameterNumber":2,"parameterNumberName":"U-component_of_WINDS"},"data":[0,0,0,0,0,0,0,0,0,0,0,0,0,0,0,0,0,0,0,0,0,0,0,0,0,0,0,0,0,0,0,0,0,0,0,0,0,0,0,0,0,0,0,0,0,0,0,0,0,0,0,0,0,0,0,0,0,0,-6.1362,-6.1362,0,-6.1392,-6.1393,-6.1393,-6.1277,-6.1274,-6.127,-6.1267,-6.1298,-6.1302,-6.1306,0,0,0,0,0,0,0,0,0,0,0,0,0,-6.1204,-6.1208,-6.1362,-6.1362,-6.1363,-6.1392,-6.1393,-6.1393,-6.1278,-6.1274,-6.127,-6.1266,-6.1297,-6.1302,-6.1307,0,0,0,0,0,0,0,0,0,0,0,0,0,-6.1258,-6.1209,-6.1362,-6.1309,-6.1304,-6.1392,-6.1393,-6.1393,-6.1279,-6.1274,-6.1269,-6.1264,-6.1295,-6.1301,-6.1307,-6.1447,0,0,-6.1326,-6.1328,0,0,0,0,0,0,0,0,-6.1255,-6.1264,-6.1316,-6.1313,-6.1308,-6.1326,-6.1348,-6.1411,-6.128,-6.1289,-6.1267,-6.1261,-6.1312,-6.1316,-6.1333,-6.1449,-6.145,-6.1326,-6.133,-6.1332,-6.1334,0,0,0,0,0,0,0,-6.1251,-6.1262,-6.1374,-6.1317,-6.1312,-6.1284,-6.1285,-6.136,-6.1329,-6.1287,-6.1279,-6.1284,-6.1308,-6.1327,-6.1333,-6.1451,-6.1326,-6.1331,-6.1335,-6.1337,-6.1684,-6.169,0,0,0,0,0,0,-6.1255,-6.1259,-6.1373,-6.1375,-6.1268,-6.1291,-6.1293,-6.1325,-6.1327,-6.1323,-6.1289,-6.1279,-6.132,-6.1326,-6.1333,-6.1499,-6.1332,-6.1338,-6.1341,-6.1679,-6.1686,-6.1692,0,0,0,0,0,0,-6.1252,-6.1266,-6.1371,-6.1315,-6.1326,-6.1299,-6.1336,-6.1328,-6.1347,-6.1328,-6.1322,-6.1314,-6.1316,-6.1325,-6.142,-6.1498,-6.1341,-6.1346,-6.1672,-6.1681,-6.1689,-6.183,0,0,0,0,0,0,-6.1248,-6.1265,-6.1318,-6.1317,-6.133,-6.1458,-6.1341,-6.1333,-6.1358,-6.1346,-6.135,-6.1346,-6.1312,-6.1412,-6.1426,-6.1503,-6.1351,-6.1665,-6.1676,-6.1686,-6.1818,-6.1842,-6.1863,0,0,0,0,0,-6.1242,-6.1356,-6.1322,-6.1336,-6.1395,-6.1463,-6.147,-6.1429,-6.1365,-6.1418,-6.1406,-6.1346,-6.1487,-6.1423,-6.1438,-6.1518,-6.166,-6.1673,-6.1685,-6.1808,-6.1837,-6.1862,0,0,0,0,0,0,-6.1367,-6.1355,-6.1316,-6.1433,-6.145,-6.1443,-6.1509,-6.1461,-6.1496,-6.1483,-6.143,-6.1432,-6.1537,-6.1537,-6.1465,-6.1655,-6.1563,-6.1579,-6.1651,-6.1678,-6.17,-6.1698,-6.1356,0,0,0,0,0,-6.1408,-6.1464,-6.1451,-6.1555,-6.1566,-6.1536,-6.1564,-6.1531,-6.1546,-6.1553,-6.1547,-6.1564,-6.1612,-6.1645,-6.1688,-6.1817,-6.1817,-6.188,-6.1903,-6.1921,-6.1936,-6.2005,-6.2033,-6.1733,-6.1733,-6.1733,0,0,-6.1494,-6.1494,-6.1533,-6.1581,-6.1589,-6.1649,-6.1543,-6.161,-6.1654,-6.1563,-6.1653,-6.165,-6.1665,-6.1779,-6.1828,-6.1782,-6.2019,-6.1937,-6.1952,-6.1956,-6.2021,-6.205,-6.2075,-6.1742,-6.174,-6.1739,0,0,-6.168,-6.1686,-6.1774,-6.1786,-6.1801,-6.1781,-6.1802,-6.1803,-6.1798,-6.1887,-6.1821,-6.1872,-6.1956,-6.197,-6.1988,-6.2182,-6.2129,-6.2198,-6.2314,-6.2382,-6.2406,-6.2427,-6.2497,-6.2522,-6.2212,-6.2213,-6.2213,0,-6.1784,-6.1871,-6.1825,-6.1898,-6.1921,-6.1842,-6.1931,-6.1945,-6.1974,-6.1992,-6.1939,-6.2044,-6.2049,-6.2165,-6.2212,-6.2229,-6.2253,-6.2197,-6.2406,-6.2427,-6.2445,-6.2511,-6.2538,-6.2221,-6.222,-6.2219,-6.2219,0,-6.1999,-6.2061,-6.213,-6.2161,-6.2192,-6.2273,-6.2239,-6.2276,-6.2241,-6.2227,-6.232,-6.2323,-6.2366,-6.2391,-6.2357,-6.2503,-6.2474,-6.2415,-6.2322,-6.2483,-6.2544,-6.2569,-6.2233,-6.223,-6.2228,-6.2226,0,0,-6.2264,-6.227,-6.2296,-6.2309,-6.2321,-6.2368,-6.2445,-6.2488,-6.2521,-6.2544,-6.2608,-6.2682,-6.2628,-6.2648,-6.2615,-6.2676,-6.283,-6.2609,-6.2608,-6.2651,-6.2993,-6.3038,-6.3068,-6.2795,-6.28,-6.2803,-6.2992,0,-6.2448,-6.2581,-6.2542,-6.2675,-6.2732,-6.2659,-6.2726,-6.2741,-6.273,-6.2777,-6.2764,-6.2818,-6.2742,-6.2754,-6.281,-6.28,-6.2898,-6.2785,-6.2855,-6.2858,-6.2854,-6.31,-6.3147,-6.3325,-6.3016,-6.302,-6.3022,0,-6.268,-6.2713,-6.2852,-6.2856,-6.2878,-6.2939,-6.2976,-6.3021,-6.3037,-6.3025,-6.305,-6.3005,-6.3081,-6.2988,-6.3093,-6.3018,-6.3044,-6.3043,-6.3049,-6.3054,-6.295,-6.3112,-6.338,-6.3408,-6.306,-6.3057,-6.3054,0,-6.2861,-6.294,-6.3033,-6.3047,-6.3053,-6.3098,-6.3103,-6.3114,-6.3142,-6.3174,-6.3192,-6.3233,-6.3256,-6.3289,-6.3256,-6.3191,-6.3367,-6.3271,-6.336,-6.3361,-6.3401,-6.3399,-6.3677,-6.3417,-6.3417,-6.3416,-6.3416,0,-6.307,-6.3158,-6.3115,-6.3173,-6.327,-6.3225,-6.3322,-6.3318,-6.3329,-6.3385,-6.3324,-6.3378,-6.3331,-6.3382,-6.3357,-6.3449,-6.3459,-6.3452,-6.3444,-6.3458,-6.3459,-6.3474,-6.3462,-6.3423,-6.3422,-6.342,-6.3419,0,-6.3288,-6.3262,-6.336,-6.3358,-6.336,-6.3432,-6.343,-6.3484,-6.3469,-6.3541,-6.3555,-6.3532,-6.3588,-6.3559,-6.3617,-6.36,-6.372,-6.3695,-6.3715,-6.3708,-6.38,-6.3792,-6.4099,-6.4137,-6.3852,-6.3854,-6.3857,0,-6.3424,-6.349,-6.3496,-6.353,-6.3539,-6.3593,-6.3622,-6.3581,-6.3614,-6.3638,-6.3689,-6.374,-6.3778,-6.3872,-6.386,-6.3904,-6.3881,-6.3985,-6.3887,-6.3899,-6.3883,-6.388,-6.3887,-6.4005,-6.4009,-6.4011,-6.4013,0,-6.3668,-6.3652,-6.3696,-6.3737,-6.3774,-6.3804,-6.3828,-6.3859,-6.3819,-6.3859,-6.3916,-6.3946,-6.4006,-6.4057,-6.4096,-6.4101,-6.4052,-6.4045,-6.4068,-6.4082,-6.4091,-6.4089,-6.3769,-6.4038,-6.4035,-6.4033,-6.4032,-6.4031,-6.3849,-6.3905,-6.3918,-6.397,-6.3985,-6.401,-6.4061,-6.4052,-6.4099,-6.4145,-6.4117,-6.4185,-6.42,-6.4247,-6.4259,-6.4311,-6.4269,-6.4302,-6.4311,-6.432,-6.4333,-6.4083,-6.4318,-6.4317,-6.4316,-6.4316,-6.4315,0,-6.409,-6.4095,-6.4144,-6.4181,-6.4222,-6.4172,-6.4197,-6.4235,-6.4295,-6.4313,-6.4353,-6.4419,-6.4469,-6.4462,-6.4508,-6.4551,-6.453,-6.4565,-6.4562,-6.4564,-6.4367,-6.4343,-6.4582,-6.4582,-6.4582,-6.4581,-6.4581,-6.4581,-6.4221,-6.4313,-6.43,-6.4399,-6.4403,-6.4469,-6.4488,-6.4511,-6.4525,-6.4602,-6.4644,-6.4639,-6.4648,-6.4694,-6.4738,-6.4735,-6.4755,-6.4799,-6.4787,-6.4604,-6.4577,-6.4552,-6.4529,-6.4803,-6.4804,-6.498,-6.4981,-6.4983]},{"header":{"parameterUnit":"m.s-1","parameterCategory":1,"la1":30.2991,"la2":30.254,"lo1":-89.0895,"lo2":-89.0444,"dy":0.0017,"dx":0.0017,"nx":28,"ny":28,"refTime":"2023-10-02T03:00:00:Z","depth":0,"parameterNumber":3,"parameterNumberName":"V-component_of_WINDS"},"data":[0,0,0,0,0,0,0,0,0,0,0,0,0,0,0,0,0,0,0,0,0,0,0,0,0,0,0,0,0,0,0,0,0,0,0,0,0,0,0,0,0,0,0,0,0,0,0,0,0,0,0,0,0,0,0,0,0,0,-1.7465,-1.7464,0,-1.7433,-1.7433,-1.7432,-1.7376,-1.7375,-1.7374,-1.7373,-1.7341,-1.7341,-1.7342,0,0,0,0,0,0,0,0,0,0,0,0,0,-1.7476,-1.7476,-1.7465,-1.7464,-1.7464,-1.7433,-1.7433,-1.7432,-1.7376,-1.7375,-1.7373,-1.7372,-1.7341,-1.7341,-1.7342,0,0,0,0,0,0,0,0,0,0,0,0,0,-1.7461,-1.7476,-1.7465,-1.7432,-1.7429,-1.7433,-1.7433,-1.7432,-1.7376,-1.7375,-1.7373,-1.7372,-1.7341,-1.7341,-1.7342,-1.7376,0,0,-1.7342,-1.7343,0,0,0,0,0,0,0,0,-1.7462,-1.746,-1.7437,-1.7434,-1.7431,-1.7407,-1.7425,-1.7413,-1.7377,-1.7396,-1.7373,-1.7371,-1.7364,-1.7363,-1.736,-1.7374,-1.7373,-1.7342,-1.7343,-1.7343,-1.7343,0,0,0,0,0,0,0,-1.7463,-1.7461,-1.7452,-1.7437,-1.7433,-1.7419,-1.7415,-1.7423,-1.739,-1.7394,-1.739,-1.7387,-1.7362,-1.736,-1.7359,-1.7372,-1.7342,-1.7343,-1.7343,-1.7343,-1.7411,-1.7413,0,0,0,0,0,0,-1.7469,-1.7463,-1.7453,-1.7451,-1.7442,-1.742,-1.7416,-1.7416,-1.739,-1.7384,-1.7389,-1.7385,-1.7361,-1.7359,-1.7358,-1.7395,-1.7343,-1.7343,-1.7343,-1.7409,-1.7411,-1.7413,0,0,0,0,0,0,-1.7469,-1.7468,-1.7455,-1.7456,-1.7453,-1.7422,-1.7423,-1.7416,-1.7414,-1.7385,-1.7379,-1.7393,-1.7359,-1.7358,-1.7371,-1.7393,-1.7343,-1.7343,-1.7408,-1.741,-1.7412,-1.7471,0,0,0,0,0,0,-1.747,-1.7469,-1.7482,-1.7456,-1.7453,-1.7469,-1.7424,-1.7417,-1.7415,-1.7409,-1.7387,-1.7382,-1.7358,-1.7371,-1.7372,-1.7393,-1.7344,-1.7405,-1.7409,-1.7412,-1.7467,-1.7475,-1.7482,0,0,0,0,0,-1.747,-1.75,-1.7483,-1.7482,-1.7469,-1.747,-1.7468,-1.744,-1.7417,-1.7429,-1.741,-1.7383,-1.7391,-1.7373,-1.7373,-1.7395,-1.7404,-1.7408,-1.7411,-1.7464,-1.7474,-1.7482,0,0,0,0,0,0,-1.7529,-1.7496,-1.7477,-1.7499,-1.7488,-1.7461,-1.7476,-1.7451,-1.7447,-1.7442,-1.7406,-1.7402,-1.742,-1.7409,-1.739,-1.7426,-1.7393,-1.7397,-1.7433,-1.7442,-1.7449,-1.7452,-1.7344,0,0,0,0,0,-1.7545,-1.7549,-1.752,-1.7542,-1.7538,-1.7508,-1.7508,-1.7486,-1.7473,-1.7468,-1.745,-1.7439,-1.7439,-1.744,-1.7438,-1.7465,-1.7459,-1.7479,-1.7487,-1.7493,-1.7497,-1.751,-1.7518,-1.7425,-1.7425,-1.7425,0,0,-1.7578,-1.756,-1.7565,-1.7554,-1.7543,-1.7548,-1.7504,-1.7512,-1.7515,-1.7469,-1.7481,-1.7468,-1.7453,-1.7473,-1.7481,-1.7464,-1.7521,-1.7498,-1.7503,-1.7504,-1.7514,-1.7523,-1.7531,-1.7428,-1.7428,-1.7427,0,0,-1.7639,-1.7626,-1.7643,-1.7633,-1.7616,-1.7595,-1.7599,-1.7575,-1.7565,-1.7575,-1.7541,-1.7544,-1.7545,-1.7535,-1.753,-1.7586,-1.7561,-1.7587,-1.7627,-1.7639,-1.7647,-1.7653,-1.7673,-1.768,-1.7591,-1.7591,-1.7591,0,-1.7682,-1.7688,-1.7655,-1.7664,-1.766,-1.7618,-1.7635,-1.7626,-1.761,-1.7608,-1.7589,-1.7588,-1.7575,-1.7592,-1.7605,-1.7603,-1.7606,-1.759,-1.7648,-1.7654,-1.766,-1.7678,-1.7686,-1.7594,-1.7594,-1.7593,-1.7593,0,-1.7741,-1.7745,-1.7761,-1.7746,-1.7743,-1.7756,-1.7725,-1.7727,-1.7705,-1.7686,-1.7697,-1.768,-1.7673,-1.7675,-1.7655,-1.7689,-1.7679,-1.7655,-1.7621,-1.7672,-1.7689,-1.7696,-1.7599,-1.7598,-1.7597,-1.7596,0,0,-1.7841,-1.7806,-1.7812,-1.7804,-1.7781,-1.7784,-1.7795,-1.7787,-1.7789,-1.7779,-1.7787,-1.7787,-1.7764,-1.7758,-1.7736,-1.7747,-1.7791,-1.772,-1.772,-1.7734,-1.7828,-1.7846,-1.7855,-1.7774,-1.7775,-1.7776,-1.7829,0,-1.7898,-1.7914,-1.7884,-1.7907,-1.791,-1.7869,-1.7878,-1.7865,-1.7848,-1.7848,-1.7829,-1.7829,-1.7799,-1.7795,-1.7804,-1.7784,-1.781,-1.778,-1.7781,-1.7781,-1.7786,-1.7864,-1.7884,-1.7935,-1.7835,-1.7836,-1.7837,0,-1.7967,-1.7959,-1.7983,-1.7957,-1.7957,-1.7966,-1.7956,-1.7957,-1.7941,-1.7927,-1.7921,-1.7893,-1.7901,-1.7869,-1.7879,-1.7859,-1.7858,-1.7848,-1.7849,-1.7848,-1.7813,-1.7866,-1.7951,-1.7958,-1.7847,-1.7846,-1.7845,0,-1.8038,-1.8033,-1.8046,-1.804,-1.8011,-1.8018,-1.8006,-1.7988,-1.7985,-1.7977,-1.7974,-1.7967,-1.7963,-1.7958,-1.793,-1.7908,-1.7943,-1.7908,-1.7932,-1.7933,-1.7942,-1.7942,-1.8028,-1.7941,-1.7941,-1.794,-1.794,0,-1.8105,-1.8121,-1.8077,-1.8085,-1.8101,-1.8066,-1.8083,-1.8067,-1.8051,-1.8055,-1.8019,-1.8023,-1.7985,-1.7986,-1.7963,-1.7975,-1.7973,-1.7963,-1.7957,-1.7966,-1.7967,-1.7965,-1.7961,-1.7942,-1.7942,-1.7942,-1.7941,0,-1.8187,-1.8158,-1.8169,-1.814,-1.8133,-1.8146,-1.8121,-1.8127,-1.8106,-1.8112,-1.8111,-1.8079,-1.8077,-1.8048,-1.804,-1.8025,-1.8046,-1.8033,-1.8051,-1.8047,-1.8073,-1.8071,-1.8161,-1.8171,-1.8077,-1.8078,-1.8078,0,-1.8232,-1.8243,-1.8214,-1.8214,-1.8204,-1.8204,-1.82,-1.8166,-1.8164,-1.8145,-1.8153,-1.8148,-1.8143,-1.8142,-1.8118,-1.8111,-1.8098,-1.813,-1.8097,-1.8106,-1.8099,-1.8098,-1.8099,-1.8137,-1.8139,-1.814,-1.814,0,-1.8315,-1.83,-1.8296,-1.8287,-1.8283,-1.8275,-1.8264,-1.8266,-1.8227,-1.8227,-1.8224,-1.822,-1.8211,-1.8206,-1.8195,-1.8182,-1.8155,-1.8151,-1.8156,-1.8166,-1.8176,-1.8171,-1.807,-1.8149,-1.8148,-1.8147,-1.8147,-1.8147,-1.838,-1.8387,-1.8368,-1.8364,-1.8352,-1.8342,-1.8346,-1.8326,-1.8323,-1.8312,-1.8292,-1.8292,-1.8274,-1.8256,-1.8246,-1.8246,-1.8229,-1.8237,-1.8239,-1.8241,-1.8247,-1.8176,-1.8243,-1.8243,-1.8243,-1.8243,-1.8242,0,-1.8461,-1.8446,-1.8443,-1.8428,-1.8425,-1.8399,-1.8385,-1.8384,-1.8385,-1.837,-1.8365,-1.8361,-1.8356,-1.8331,-1.8323,-1.8328,-1.8315,-1.8327,-1.8326,-1.8324,-1.8262,-1.8258,-1.8337,-1.8337,-1.8337,-1.8337,-1.8337,-1.8337,-1.8503,-1.8514,-1.8496,-1.85,-1.8485,-1.8484,-1.8478,-1.8469,-1.8457,-1.8454,-1.845,-1.8433,-1.8414,-1.8404,-1.8398,-1.8391,-1.839,-1.8406,-1.8395,-1.8337,-1.8328,-1.832,-1.8316,-1.8406,-1.8406,-1.8457,-1.8457,-1.8457]}]]